| time (UTC) | temp C | wind direction | speed KPH | gust KPH | rain 1hr cm | rain 24hr cm | rain mn cm | humidity % | barometer mb |
| 20260903131057 | 25 | 206 | 6.4 | 16.1 | 0.00 | 0.13 | 0.00 | 85 | 1012.5 |
| 20260903130830 | 25 | 187 | 9.7 | 16.1 | 0.00 | 0.13 | 0.00 | 85 | 1015.6 |
| 20260903130550 | 25 | 179 | 9.7 | 16.1 | 0.00 | 0.13 | 0.00 | 85 | 1012.5 |
| 20260903130330 | 25 | 184 | 9.7 | 16.1 | 0.00 | 0.13 | 0.00 | 85 | 1015.6 |
| 20260903130042 | 25 | 197 | 9.7 | 16.1 | 0.00 | 0.13 | 0.00 | 85 | 1012.3 |
| 20260903125850 | 25 | 188 | 9.7 | 17.7 | 0.00 | 0.13 | 0.00 | 85 | 1015.5 |
| 20260903125509 | 25 | 192 | 9.7 | 17.7 | 0.00 | 0.13 | 0.00 | 85 | 1012.4 |
| 20260903125329 | 25 | 188 | 11.3 | 17.7 | 0.00 | 0.13 | 0.00 | 85 | 1015.5 |
| 20260903125003 | 25 | 193 | 11.3 | 17.7 | 0.00 | 0.13 | 0.00 | 85 | 1012.3 |
| 20260903124827 | 25 | 173 | 11.3 | 17.7 | 0.00 | 0.13 | 0.00 | 85 | 1015.5 |
| 20260903124557 | 25 | 183 | 8.0 | 17.7 | 0.00 | 0.13 | 0.00 | 84 | 1012.4 |
| 20260903124325 | 25 | 185 | 8.0 | 17.7 | 0.00 | 0.13 | 0.00 | 84 | 1015.4 |
| 20260903124050 | 25 | 189 | 9.7 | 17.7 | 0.00 | 0.13 | 0.00 | 84 | 1012.3 |
| 20260903123824 | 25 | 187 | 9.7 | 16.1 | 0.00 | 0.13 | 0.00 | 84 | 1015.4 |
| 20260903123542 | 25 | 185 | 9.7 | 14.5 | 0.00 | 0.13 | 0.00 | 84 | 1012.2 |
| 20260903123323 | 25 | 166 | 9.7 | 14.5 | 0.00 | 0.13 | 0.00 | 84 | 1015.4 |
| 20260903123037 | 25 | 187 | 8.0 | 14.5 | 0.00 | 0.13 | 0.00 | 84 | 1012.1 |
| 20260903122821 | 25 | 189 | 8.0 | 14.5 | 0.00 | 0.13 | 0.00 | 84 | 1015.2 |
| 20260903122531 | 25 | 185 | 6.4 | 12.9 | 0.00 | 0.13 | 0.00 | 84 | 1012.1 |
| 20260903122338 | 25 | 180 | 6.4 | 12.9 | 0.00 | 0.13 | 0.00 | 84 | 1015.2 |
| 20260903122017 | 25 | 180 | 8.0 | 12.9 | 0.00 | 0.13 | 0.00 | 84 | 1012.1 |
| 20260903121831 | 25 | 168 | 9.7 | 14.5 | 0.00 | 0.13 | 0.00 | 84 | 1015.2 |
| 20260903121506 | 25 | 152 | 8.0 | 14.5 | 0.00 | 0.13 | 0.00 | 84 | 1012.1 |
| 20260903121330 | 25 | 159 | 8.0 | 14.5 | 0.00 | 0.13 | 0.00 | 84 | 1015.1 |
| 20260903121056 | 25 | 179 | 6.4 | 14.5 | 0.00 | 0.13 | 0.00 | 84 | 1012.1 |
| 20260903120829 | 25 | 166 | 9.7 | 14.5 | 0.00 | 0.13 | 0.00 | 84 | 1015.2 |
| 20260903120549 | 25 | 168 | 9.7 | 14.5 | 0.00 | 0.13 | 0.00 | 84 | 1012.1 |
| 20260903120327 | 25 | 184 | 11.3 | 14.5 | 0.00 | 0.13 | 0.00 | 84 | 1015.0 |
| 20260903120049 | 25 | 160 | 8.0 | 12.9 | 0.00 | 0.13 | 0.00 | 84 | 1012.0 |
| 20260903115844 | 25 | 184 | 8.0 | 12.9 | 0.00 | 0.13 | 0.00 | 83 | 1015.0 |
| 20260903115505 | 25 | 185 | 8.0 | 12.9 | 0.00 | 0.13 | 0.00 | 83 | 1012.0 |
| 20260903115320 | 25 | 190 | 8.0 | 12.9 | 0.00 | 0.13 | 0.00 | 83 | 1015.1 |
| 20260903115102 | 25 | 190 | 8.0 | 12.9 | 0.00 | 0.13 | 0.00 | 83 | 1012.0 |
| 20260903114840 | 25 | 162 | 9.7 | 12.9 | 0.00 | 0.13 | 0.00 | 83 | 1015.1 |
| 20260903114550 | 25 | 158 | 8.0 | 11.3 | 0.00 | 0.13 | 0.00 | 83 | 1012.0 |
| 20260903114332 | 25 | 169 | 8.0 | 9.7 | 0.00 | 0.13 | 0.00 | 83 | 1015.1 |
| 20260903114040 | 25 | 178 | 6.4 | 11.3 | 0.00 | 0.13 | 0.00 | 83 | 1012.0 |
| 20260903113829 | 25 | 159 | 9.7 | 11.3 | 0.00 | 0.13 | 0.00 | 83 | 1015.1 |
| 20260903113532 | 25 | 165 | 4.8 | 12.9 | 0.00 | 0.13 | 0.00 | 83 | 1012.0 |
| 20260903113327 | 25 | 172 | 8.0 | 11.3 | 0.00 | 0.13 | 0.00 | 83 | 1014.9 |
| 20260903113015 | 25 | 192 | 8.0 | 11.3 | 0.00 | 0.13 | 0.00 | 82 | 1011.9 |
| 20260903112824 | 25 | 195 | 8.0 | 11.3 | 0.00 | 0.13 | 0.00 | 82 | 1014.9 |
| 20260903112507 | 25 | 197 | 6.4 | 12.9 | 0.00 | 0.13 | 0.00 | 82 | 1011.8 |
| 20260903112322 | 25 | 187 | 6.4 | 12.9 | 0.00 | 0.13 | 0.00 | 82 | 1014.9 |
| 20260903112003 | 25 | 200 | 8.0 | 12.9 | 0.00 | 0.13 | 0.00 | 82 | 1011.9 |
| 20260903111840 | 25 | 208 | 6.4 | 12.9 | 0.00 | 0.13 | 0.00 | 82 | 1014.8 |
| 20260903111608 | 25 | 193 | 6.4 | 11.3 | 0.00 | 0.13 | 0.00 | 82 | 1011.8 |
| 20260903111331 | 25 | 193 | 6.4 | 11.3 | 0.00 | 0.13 | 0.00 | 82 | 1014.9 |
| 20260903111056 | 25 | 194 | 6.4 | 11.3 | 0.00 | 0.13 | 0.00 | 82 | 1011.9 |
| 20260903110829 | 25 | 198 | 8.0 | 11.3 | 0.00 | 0.13 | 0.00 | 82 | 1014.9 |
| 20260903110548 | 25 | 183 | 4.8 | 8.0 | 0.00 | 0.13 | 0.00 | 81 | 1011.8 |
| 20260903110326 | 25 | 183 | 4.8 | 9.7 | 0.00 | 0.13 | 0.00 | 81 | 1014.8 |
| 20260903110041 | 25 | 183 | 4.8 | 9.7 | 0.00 | 0.13 | 0.00 | 81 | 1011.7 |
| 20260903105824 | 25 | 183 | 4.8 | 9.7 | 0.00 | 0.13 | 0.00 | 81 | 1014.7 |
| 20260903105535 | 25 | 183 | 3.2 | 9.7 | 0.00 | 0.13 | 0.00 | 81 | 1011.7 |
| 20260903105322 | 25 | 183 | 4.8 | 9.7 | 0.00 | 0.13 | 0.00 | 81 | 1014.8 |
| 20260903105024 | 25 | 183 | 4.8 | 9.7 | 0.00 | 0.13 | 0.00 | 81 | 1011.7 |
| 20260903104840 | 25 | 183 | 4.8 | 9.7 | 0.00 | 0.13 | 0.00 | 81 | 1014.8 |
| 20260903104516 | 25 | 203 | 4.8 | 9.7 | 0.00 | 0.13 | 0.00 | 81 | 1011.7 |
| 20260903104331 | 25 | 197 | 4.8 | 9.7 | 0.00 | 0.13 | 0.00 | 81 | 1014.7 |
| 20260903104101 | 25 | 197 | 4.8 | 9.7 | 0.00 | 0.13 | 0.00 | 80 | 1011.7 |
| 20260903103829 | 25 | 226 | 4.8 | 9.7 | 0.00 | 0.13 | 0.00 | 80 | 1014.5 |
| 20260903103546 | 25 | 206 | 3.2 | 9.7 | 0.00 | 0.13 | 0.00 | 80 | 1011.5 |
| 20260903103327 | 25 | 205 | 3.2 | 9.7 | 0.00 | 0.13 | 0.00 | 80 | 1014.4 |
| 20260903103051 | 25 | 204 | 4.8 | 9.7 | 0.00 | 0.13 | 0.00 | 80 | 1011.3 |
| 20260903102825 | 25 | 208 | 4.8 | 8.0 | 0.00 | 0.13 | 0.00 | 80 | 1014.4 |
| 20260903102527 | 25 | 208 | 3.2 | 8.0 | 0.00 | 0.13 | 0.00 | 80 | 1011.5 |
| 20260903102323 | 25 | 208 | 4.8 | 8.0 | 0.00 | 0.13 | 0.00 | 80 | 1014.5 |
| 20260903102009 | 25 | 204 | 4.8 | 9.7 | 0.00 | 0.13 | 0.00 | 79 | 1011.5 |
| 20260903101821 | 25 | 193 | 6.4 | 9.7 | 0.00 | 0.13 | 0.00 | 79 | 1014.5 |
| 20260903101600 | 25 | 184 | 3.2 | 9.7 | 0.00 | 0.13 | 0.00 | 79 | 1011.5 |
| 20260903101340 | 25 | 184 | 6.4 | 9.7 | 0.00 | 0.13 | 0.00 | 79 | 1014.6 |
| 20260903101048 | 25 | 197 | 4.8 | 9.7 | 0.00 | 0.13 | 0.00 | 79 | 1011.5 |
| 20260903100831 | 25 | 185 | 4.8 | 9.7 | 0.00 | 0.13 | 0.00 | 79 | 1014.6 |
| 20260903100538 | 25 | 187 | 4.8 | 11.3 | 0.00 | 0.13 | 0.00 | 79 | 1011.6 |
| 20260903100329 | 25 | 156 | 8.0 | 11.3 | 0.00 | 0.13 | 0.00 | 79 | 1014.6 |
| 20260903100031 | 25 | 160 | 6.4 | 11.3 | 0.00 | 0.13 | 0.00 | 79 | 1011.5 |
| 20260903095827 | 26 | 154 | 6.4 | 12.9 | 0.00 | 0.13 | 0.00 | 79 | 1014.6 |
| 20260903095510 | 25 | 170 | 6.4 | 14.5 | 0.00 | 0.13 | 0.00 | 78 | 1011.6 |
| 20260903095325 | 26 | 158 | 9.7 | 14.5 | 0.00 | 0.13 | 0.00 | 78 | 1014.7 |
| 20260903095105 | 25 | 186 | 6.4 | 14.5 | 0.00 | 0.13 | 0.00 | 78 | 1011.7 |
| 20260903094843 | 26 | 197 | 9.7 | 14.5 | 0.00 | 0.13 | 0.00 | 78 | 1014.7 |
| 20260903094534 | 25 | 179 | 4.8 | 12.9 | 0.00 | 0.13 | 0.00 | 78 | 1011.7 |
| 20260903094320 | 26 | 179 | 6.4 | 12.9 | 0.00 | 0.13 | 0.00 | 78 | 1014.6 |
| 20260903094024 | 25 | 197 | 6.4 | 14.5 | 0.00 | 0.13 | 0.00 | 78 | 1011.7 |
| 20260903093838 | 26 | 175 | 6.4 | 14.5 | 0.00 | 0.13 | 0.00 | 77 | 1014.7 |
| 20260903093551 | 25 | 187 | 8.0 | 14.5 | 0.00 | 0.13 | 0.00 | 77 | 1011.8 |
| 20260903093335 | 26 | 179 | 6.4 | 12.9 | 0.00 | 0.13 | 0.00 | 77 | 1014.8 |
| 20260903093010 | 25 | 188 | 6.4 | 11.3 | 0.00 | 0.13 | 0.00 | 77 | 1011.7 |
| 20260903092832 | 26 | 187 | 6.4 | 11.3 | 0.00 | 0.13 | 0.00 | 77 | 1014.8 |
| 20260903092502 | 25 | 193 | 6.4 | 11.3 | 0.00 | 0.13 | 0.00 | 77 | 1011.9 |
| 20260903092330 | 26 | 167 | 6.4 | 11.3 | 0.00 | 0.13 | 0.00 | 77 | 1014.9 |
| 20260903092057 | 25 | 175 | 6.4 | 11.3 | 0.00 | 0.13 | 0.00 | 77 | 1012.0 |
| 20260903091823 | 26 | 170 | 8.0 | 11.3 | 0.00 | 0.13 | 0.00 | 77 | 1014.9 |
| 20260903091535 | 25 | 160 | 4.8 | 11.3 | 0.00 | 0.13 | 0.00 | 76 | 1011.9 |
| 20260903091321 | 26 | 188 | 6.4 | 11.3 | 0.00 | 0.13 | 0.00 | 76 | 1014.9 |
| 20260903091008 | 25 | 191 | 4.8 | 14.5 | 0.00 | 0.13 | 0.00 | 76 | 1011.9 |
| 20260903090819 | 26 | 207 | 6.4 | 14.5 | 0.00 | 0.13 | 0.00 | 76 | 1015.0 |
| 20260903090602 | 25 | 212 | 6.4 | 14.5 | 0.00 | 0.13 | 0.00 | 76 | 1011.9 |
| 20260903090317 | 26 | 173 | 8.0 | 16.1 | 0.00 | 0.13 | 0.00 | 76 | 1014.9 |
| 20260903090051 | 25 | 168 | 4.8 | 12.9 | 0.00 | 0.13 | 0.00 | 76 | 1011.8 |
| 20260903085815 | 26 | 199 | 4.8 | 12.9 | 0.00 | 0.13 | 0.00 | 76 | 1014.8 |
| 20260903085540 | 26 | 199 | 4.8 | 12.9 | 0.00 | 0.13 | 0.00 | 76 | 1011.8 |
| 20260903085353 | 26 | 192 | 8.0 | 12.9 | 0.00 | 0.13 | 0.00 | 76 | 1014.8 |
| 20260903085006 | 26 | 204 | 6.4 | 12.9 | 0.00 | 0.13 | 0.00 | 75 | 1011.8 |
| 20260903084850 | 26 | 168 | 6.4 | 12.9 | 0.00 | 0.13 | 0.00 | 75 | 1014.9 |
| 20260903084543 | 26 | 176 | 6.4 | 12.9 | 0.00 | 0.13 | 0.00 | 75 | 1011.8 |
| 20260903084327 | 26 | 190 | 8.0 | 12.9 | 0.00 | 0.13 | 0.00 | 75 | 1014.8 |
| 20260903084028 | 26 | 177 | 8.0 | 12.9 | 0.00 | 0.13 | 0.00 | 75 | 1011.8 |
| 20260903083825 | 26 | 188 | 6.4 | 12.9 | 0.00 | 0.13 | 0.00 | 75 | 1014.8 |
| 20260903083507 | 26 | 184 | 8.0 | 14.5 | 0.00 | 0.13 | 0.00 | 76 | 1011.9 |
| 20260903083323 | 26 | 205 | 9.7 | 14.5 | 0.00 | 0.13 | 0.00 | 76 | 1014.8 |
| 20260903083104 | 25 | 189 | 6.4 | 14.5 | 0.00 | 0.13 | 0.00 | 76 | 1011.8 |
| 20260903082821 | 26 | 206 | 8.0 | 14.5 | 0.00 | 0.13 | 0.00 | 76 | 1014.8 |
| 20260903082548 | 25 | 186 | 8.0 | 14.5 | 0.00 | 0.13 | 0.00 | 76 | 1011.8 |
| 20260903082318 | 26 | 197 | 9.7 | 14.5 | 0.00 | 0.13 | 0.00 | 76 | 1014.8 |
| 20260903082018 | 25 | 183 | 8.0 | 14.5 | 0.00 | 0.13 | 0.00 | 76 | 1011.9 |
| 20260903081815 | 25 | 184 | 8.0 | 14.5 | 0.00 | 0.13 | 0.00 | 76 | 1015.0 |
| 20260903081612 | 25 | 195 | 4.8 | 9.7 | 0.00 | 0.13 | 0.00 | 76 | 1011.8 |
| 20260903081314 | 25 | 198 | 6.4 | 9.7 | 0.00 | 0.13 | 0.00 | 77 | 1014.9 |
| 20260903081051 | 25 | 202 | 3.2 | 8.0 | 0.00 | 0.13 | 0.00 | 76 | 1011.9 |
| 20260903080839 | 25 | 201 | 4.8 | 9.7 | 0.00 | 0.13 | 0.00 | 76 | 1015.0 |
| 20260903080535 | 25 | 194 | 4.8 | 9.7 | 0.00 | 0.13 | 0.00 | 77 | 1012.0 |
| 20260903080331 | 25 | 205 | 3.2 | 9.7 | 0.00 | 0.13 | 0.00 | 77 | 1015.1 |
| 20260903080018 | 25 | 170 | 3.2 | 6.4 | 0.00 | 0.13 | 0.00 | 76 | 1012.1 |
| 20260903075830 | 25 | 170 | 3.2 | 6.4 | 0.00 | 0.13 | 0.00 | 77 | 1015.1 |
| 20260903075513 | 25 | 170 | 3.2 | 9.7 | 0.00 | 0.13 | 0.00 | 77 | 1012.2 |
| 20260903075330 | 25 | 170 | 4.8 | 9.7 | 0.00 | 0.13 | 0.00 | 77 | 1015.1 |
| 20260903075005 | 25 | 170 | 4.8 | 9.7 | 0.00 | 0.13 | 0.00 | 77 | 1012.1 |
| 20260903074830 | 25 | 170 | 8.0 | 9.7 | 0.00 | 0.13 | 0.00 | 76 | 1015.1 |
| 20260903074600 | 25 | 170 | 3.2 | 8.0 | 0.00 | 0.13 | 0.00 | 76 | 1012.1 |
| 20260903074327 | 25 | 170 | 4.8 | 8.0 | 0.00 | 0.13 | 0.00 | 76 | 1015.2 |
| 20260903074054 | 25 | 170 | 4.8 | 8.0 | 0.00 | 0.13 | 0.00 | 76 | 1012.2 |
| 20260903073824 | 25 | 170 | 6.4 | 8.0 | 0.00 | 0.13 | 0.00 | 76 | 1015.3 |
| 20260903073548 | 25 | 170 | 6.4 | 8.0 | 0.00 | 0.13 | 0.00 | 76 | 1012.2 |
| 20260903073322 | 25 | 170 | 6.4 | 8.0 | 0.00 | 0.13 | 0.00 | 76 | 1015.3 |
| 20260903073038 | 25 | 170 | 6.4 | 8.0 | 0.00 | 0.13 | 0.00 | 76 | 1012.3 |
| 20260903072821 | 25 | 170 | 4.8 | 6.4 | 0.00 | 0.13 | 0.00 | 76 | 1015.3 |
| 20260903072531 | 25 | 170 | 3.2 | 6.4 | 0.00 | 0.13 | 0.00 | 76 | 1012.3 |
| 20260903072319 | 26 | 170 | 4.8 | 6.4 | 0.00 | 0.13 | 0.00 | 76 | 1015.3 |
| 20260903072054 | 25 | 170 | 3.2 | 6.4 | 0.00 | 0.13 | 0.00 | 76 | 1012.3 |
| 20260903071818 | 26 | 170 | 4.8 | 6.4 | 0.00 | 0.13 | 0.00 | 76 | 1015.3 |
| 20260903071552 | 25 | 170 | 1.6 | 4.8 | 0.00 | 0.13 | 0.00 | 76 | 1012.3 |
| 20260903071316 | 26 | 170 | 0.0 | 4.8 | 0.00 | 0.13 | 0.00 | 76 | 1015.3 |
| 20260903071040 | 25 | 170 | 1.6 | 6.4 | 0.00 | 0.13 | 0.00 | 76 | 1012.2 |
| 20260903070833 | 26 | 170 | 1.6 | 4.8 | 0.00 | 0.13 | 0.00 | 76 | 1015.3 |
| 20260903070537 | 25 | 170 | 1.6 | 4.8 | 0.00 | 0.13 | 0.00 | 75 | 1012.3 |
| 20260903070332 | 26 | 170 | 1.6 | 6.4 | 0.00 | 0.13 | 0.00 | 75 | 1015.4 |
| 20260903070028 | 25 | 170 | 1.6 | 6.4 | 0.00 | 0.13 | 0.00 | 75 | 1012.4 |
| 20260903065827 | 26 | 170 | 3.2 | 6.4 | 0.00 | 0.13 | 0.00 | 75 | 1015.4 |
| 20260903065524 | 26 | 170 | 3.2 | 6.4 | 0.00 | 0.13 | 0.00 | 75 | 1012.4 |
| 20260903065324 | 26 | 170 | 1.6 | 6.4 | 0.00 | 0.13 | 0.00 | 75 | 1015.4 |
| 20260903065008 | 26 | 170 | 1.6 | 6.4 | 0.00 | 0.13 | 0.00 | 75 | 1012.4 |
| 20260903064840 | 26 | 170 | 1.6 | 6.4 | 0.00 | 0.13 | 0.00 | 75 | 1015.4 |
| 20260903064548 | 26 | 170 | 1.6 | 6.4 | 0.00 | 0.13 | 0.00 | 75 | 1012.5 |
| 20260903064318 | 26 | 170 | 3.2 | 6.4 | 0.00 | 0.13 | 0.00 | 75 | 1015.5 |
| 20260903064034 | 26 | 170 | 4.8 | 6.4 | 0.00 | 0.13 | 0.00 | 75 | 1012.5 |
| 20260903063854 | 26 | 170 | 4.8 | 6.4 | 0.00 | 0.13 | 0.00 | 75 | 1015.5 |
| 20260903063559 | 26 | 170 | 3.2 | 8.0 | 0.00 | 0.13 | 0.00 | 74 | 1012.6 |
| 20260903063322 | 26 | 170 | 3.2 | 8.0 | 0.00 | 0.13 | 0.00 | 74 | 1015.7 |
| 20260903063051 | 26 | 170 | 4.8 | 8.0 | 0.00 | 0.13 | 0.00 | 74 | 1012.7 |
| 20260903062825 | 26 | 170 | 4.8 | 8.0 | 0.00 | 0.13 | 0.00 | 74 | 1015.7 |
| 20260903062536 | 26 | 170 | 3.2 | 6.4 | 0.00 | 0.13 | 0.00 | 74 | 1012.8 |
| 20260903062320 | 26 | 170 | 6.4 | 8.0 | 0.00 | 0.13 | 0.00 | 74 | 1015.8 |
| 20260903062026 | 26 | 149 | 3.2 | 8.0 | 0.00 | 0.13 | 0.00 | 74 | 1012.8 |
| 20260903061820 | 26 | 149 | 3.2 | 9.7 | 0.00 | 0.13 | 0.00 | 74 | 1015.9 |
| 20260903061524 | 26 | 140 | 3.2 | 9.7 | 0.00 | 0.13 | 0.00 | 74 | 1012.7 |
| 20260903061317 | 26 | 140 | 1.6 | 9.7 | 0.00 | 0.13 | 0.00 | 74 | 1015.8 |
| 20260903061002 | 26 | 115 | 3.2 | 8.0 | 0.00 | 0.13 | 0.00 | 74 | 1012.6 |
| 20260903060816 | 26 | 125 | 3.2 | 8.0 | 0.00 | 0.13 | 0.00 | 74 | 1015.8 |
| 20260903060558 | 26 | 104 | 3.2 | 8.0 | 0.00 | 0.13 | 0.00 | 74 | 1012.8 |
| 20260903060314 | 26 | 135 | 4.8 | 8.0 | 0.00 | 0.13 | 0.00 | 74 | 1015.9 |
| 20260903060048 | 26 | 138 | 1.6 | 9.7 | 0.00 | 0.13 | 0.00 | 73 | 1012.8 |
| 20260903055828 | 26 | 133 | 3.2 | 12.9 | 0.00 | 0.13 | 0.00 | 73 | 1015.8 |
| 20260903055517 | 26 | 139 | 1.6 | 14.5 | 0.00 | 0.13 | 0.00 | 73 | 1012.7 |
| 20260903055327 | 27 | 149 | 3.2 | 14.5 | 0.00 | 0.13 | 0.00 | 73 | 1015.7 |
| 20260903055008 | 26 | 133 | 6.4 | 14.5 | 0.00 | 0.13 | 0.00 | 73 | 1012.6 |
| 20260903054824 | 27 | 145 | 6.4 | 11.3 | 0.00 | 0.13 | 0.00 | 73 | 1015.6 |
| 20260903054607 | 26 | 140 | 3.2 | 11.3 | 0.00 | 0.13 | 0.00 | 73 | 1012.7 |
| 20260903054324 | 27 | 130 | 4.8 | 11.3 | 0.00 | 0.13 | 0.00 | 73 | 1015.6 |
| 20260903054052 | 26 | 110 | 3.2 | 11.3 | 0.00 | 0.13 | 0.00 | 72 | 1012.6 |
| 20260903053840 | 27 | 118 | 4.8 | 11.3 | 0.00 | 0.13 | 0.00 | 72 | 1015.8 |
| 20260903053539 | 26 | 108 | 4.8 | 14.5 | 0.00 | 0.13 | 0.00 | 72 | 1012.7 |
| 20260903053331 | 27 | 125 | 3.2 | 14.5 | 0.00 | 0.13 | 0.00 | 72 | 1015.7 |
| 20260903053036 | 27 | 125 | 6.4 | 14.5 | 0.00 | 0.13 | 0.00 | 72 | 1012.6 |
| 20260903052829 | 27 | 173 | 6.4 | 12.9 | 0.00 | 0.13 | 0.00 | 71 | 1015.7 |
| 20260903052514 | 27 | 137 | 3.2 | 12.9 | 0.00 | 0.13 | 0.00 | 71 | 1012.7 |
| 20260903052324 | 27 | 139 | 6.4 | 19.3 | 0.00 | 0.13 | 0.00 | 71 | 1015.8 |
| 20260903052006 | 27 | 113 | 4.8 | 19.3 | 0.00 | 0.13 | 0.00 | 71 | 1012.9 |
| 20260903051821 | 27 | 120 | 4.8 | 19.3 | 0.00 | 0.13 | 0.00 | 71 | 1015.8 |
| 20260903051600 | 27 | 118 | 11.3 | 19.3 | 0.00 | 0.13 | 0.00 | 71 | 1012.7 |
| 20260903051320 | 27 | 119 | 8.0 | 17.7 | 0.00 | 0.13 | 0.00 | 71 | 1015.8 |
| 20260903051054 | 27 | 116 | 4.8 | 16.1 | 0.00 | 0.13 | 0.00 | 70 | 1012.8 |
| 20260903050817 | 27 | 114 | 6.4 | 16.1 | 0.00 | 0.13 | 0.00 | 70 | 1015.7 |
| 20260903050546 | 27 | 106 | 4.8 | 16.1 | 0.00 | 0.13 | 0.00 | 70 | 1012.7 |
| 20260903050353 | 27 | 131 | 6.4 | 16.1 | 0.00 | 0.13 | 0.00 | 70 | 1015.8 |
| 20260903050109 | 27 | 142 | 6.4 | 19.3 | 0.00 | 0.13 | 0.00 | 70 | 1012.7 |
| 20260903045839 | 27 | 143 | 3.2 | 19.3 | 0.00 | 0.13 | 0.13 | 70 | 1015.6 |
| 20260903045542 | 27 | 132 | 8.0 | 19.3 | 0.00 | 0.13 | 0.13 | 70 | 1012.7 |
| 20260903045331 | 27 | 101 | 8.0 | 16.1 | 0.00 | 0.13 | 0.13 | 70 | 1015.7 |
| 20260903045036 | 27 | 116 | 8.0 | 14.5 | 0.00 | 0.13 | 0.13 | 70 | 1012.7 |
| 20260903044830 | 27 | 108 | 6.4 | 14.5 | 0.00 | 0.13 | 0.13 | 69 | 1015.8 |
| 20260903044532 | 27 | 87 | 4.8 | 14.5 | 0.00 | 0.13 | 0.13 | 69 | 1012.7 |
| 20260903044329 | 28 | 101 | 6.4 | 17.7 | 0.00 | 0.13 | 0.13 | 69 | 1015.8 |
| 20260903044016 | 27 | 152 | 4.8 | 17.7 | 0.00 | 0.13 | 0.13 | 69 | 1012.7 |
| 20260903043828 | 28 | 121 | 6.4 | 17.7 | 0.00 | 0.13 | 0.13 | 69 | 1015.7 |
| 20260903043508 | 27 | 96 | 6.4 | 17.7 | 0.00 | 0.13 | 0.13 | 69 | 1012.8 |
| 20260903043329 | 28 | 83 | 4.8 | 12.9 | 0.00 | 0.13 | 0.13 | 68 | 1015.7 |
| 20260903043003 | 28 | 93 | 4.8 | 12.9 | 0.00 | 0.13 | 0.13 | 68 | 1012.6 |
| 20260903042827 | 28 | 105 | 3.2 | 12.9 | 0.00 | 0.13 | 0.13 | 68 | 1015.6 |
| 20260903042559 | 28 | 118 | 3.2 | 12.9 | 0.00 | 0.13 | 0.13 | 68 | 1012.5 |
| 20260903042326 | 28 | 122 | 4.8 | 12.9 | 0.00 | 0.13 | 0.13 | 67 | 1015.5 |
| 20260903042050 | 28 | 39 | 6.4 | 14.5 | 0.00 | 0.13 | 0.13 | 67 | 1012.4 |
| 20260903041845 | 28 | 105 | 4.8 | 14.5 | 0.00 | 0.13 | 0.13 | 67 | 1015.5 |
| 20260903041525 | 28 | 88 | 4.8 | 14.5 | 0.00 | 0.13 | 0.13 | 67 | 1012.5 |
| 20260903041323 | 28 | 53 | 4.8 | 14.5 | 0.00 | 0.13 | 0.13 | 66 | 1015.6 |
| 20260903041006 | 28 | 83 | 3.2 | 17.7 | 0.00 | 0.13 | 0.13 | 66 | 1012.6 |
| 20260903040821 | 28 | 110 | 6.4 | 17.7 | 0.00 | 0.13 | 0.13 | 66 | 1015.6 |
| 20260903040538 | 28 | 75 | 8.0 | 17.7 | 0.00 | 0.13 | 0.13 | 66 | 1012.6 |
| 20260903040322 | 28 | 33 | 9.7 | 17.7 | 0.00 | 0.13 | 0.13 | 66 | 1015.6 |
| 20260903040032 | 28 | 64 | 9.7 | 19.3 | 0.00 | 0.13 | 0.13 | 65 | 1012.6 |
| 20260903035820 | 29 | 108 | 8.0 | 19.3 | 0.00 | 0.13 | 0.13 | 65 | 1015.6 |
| 20260903035526 | 28 | 114 | 6.4 | 19.3 | 0.00 | 0.13 | 0.13 | 64 | 1012.6 |
| 20260903035319 | 29 | 133 | 9.7 | 20.9 | 0.00 | 0.13 | 0.13 | 64 | 1015.6 |
| 20260903035021 | 28 | 100 | 8.0 | 20.9 | 0.00 | 0.13 | 0.13 | 64 | 1012.7 |
| 20260903034820 | 29 | 112 | 9.7 | 20.9 | 0.00 | 0.13 | 0.13 | 64 | 1015.7 |
| 20260903034507 | 29 | 69 | 8.0 | 20.9 | 0.00 | 0.13 | 0.13 | 63 | 1012.6 |
| 20260903034320 | 29 | 48 | 6.4 | 20.9 | 0.00 | 0.13 | 0.13 | 63 | 1015.6 |
| 20260903034058 | 29 | 96 | 8.0 | 20.9 | 0.00 | 0.13 | 0.13 | 63 | 1012.6 |
| 20260903033820 | 29 | 69 | 9.7 | 20.9 | 0.00 | 0.13 | 0.13 | 63 | 1015.6 |
| 20260903033552 | 29 | 79 | 8.0 | 17.7 | 0.00 | 0.13 | 0.13 | 63 | 1012.6 |
| 20260903033338 | 29 | 97 | 9.7 | 16.1 | 0.00 | 0.13 | 0.13 | 63 | 1015.6 |
| 20260903033038 | 29 | 147 | 6.4 | 17.7 | 0.00 | 0.13 | 0.13 | 63 | 1012.5 |
| 20260903032831 | 29 | 103 | 6.4 | 17.7 | 0.00 | 0.13 | 0.13 | 63 | 1015.6 |
| 20260903032535 | 29 | 82 | 6.4 | 25.7 | 0.00 | 0.13 | 0.13 | 63 | 1012.4 |
| 20260903032331 | 29 | 43 | 9.7 | 25.7 | 0.00 | 0.13 | 0.13 | 63 | 1015.6 |
| 20260903032028 | 29 | 90 | 9.7 | 25.7 | 0.00 | 0.13 | 0.13 | 62 | 1012.4 |
| 20260903031830 | 29 | 119 | 14.5 | 25.7 | 0.00 | 0.13 | 0.13 | 62 | 1015.5 |
| 20260903031508 | 28 | 112 | 4.8 | 12.9 | 0.00 | 0.13 | 0.13 | 64 | 1012.3 |
| 20260903031328 | 29 | 85 | 4.8 | 12.9 | 0.00 | 0.13 | 0.13 | 64 | 1015.4 |
| 20260903031000 | 28 | 110 | 0.0 | 3.2 | 0.00 | 0.13 | 0.13 | 64 | 1012.0 |
| 20260903030847 | 29 | 110 | 1.6 | 3.2 | 0.00 | 0.13 | 0.13 | 64 | 1015.0 |
| 20260903030532 | 28 | 110 | 0.0 | 1.6 | 0.00 | 0.13 | 0.13 | 65 | 1012.0 |
| 20260903030343 | 29 | 110 | 0.0 | 1.6 | 0.00 | 0.13 | 0.13 | 64 | 1014.9 |
| 20260903030119 | 28 | 110 | 0.0 | 1.6 | 0.00 | 0.13 | 0.13 | 64 | 1011.8 |
| 20260903025841 | 29 | 110 | 0.0 | 1.6 | 0.00 | 0.13 | 0.13 | 64 | 1014.9 |
| 20260903025526 | 28 | 110 | 0.0 | 1.6 | 0.00 | 0.13 | 0.13 | 64 | 1011.7 |
| 20260903025338 | 29 | 110 | 0.0 | 1.6 | 0.00 | 0.13 | 0.13 | 64 | 1014.8 |
| 20260903025052 | 29 | 110 | 0.0 | 1.6 | 0.00 | 0.13 | 0.13 | 64 | 1011.6 |
| 20260903024816 | 29 | 110 | 0.0 | 1.6 | 0.00 | 0.13 | 0.13 | 64 | 1014.8 |
| 20260903024546 | 29 | 110 | 0.0 | 1.6 | 0.00 | 0.13 | 0.13 | 64 | 1011.5 |
| 20260903024315 | 29 | 110 | 0.0 | 3.2 | 0.00 | 0.13 | 0.13 | 64 | 1014.7 |
| 20260903024040 | 29 | 110 | 0.0 | 3.2 | 0.00 | 0.13 | 0.13 | 65 | 1011.5 |
| 20260903023814 | 29 | 110 | 0.0 | 3.2 | 0.00 | 0.13 | 0.13 | 64 | 1014.6 |
| 20260903023537 | 29 | 110 | 1.6 | 3.2 | 0.00 | 0.13 | 0.13 | 63 | 1011.5 |
| 20260903023350 | 30 | 110 | 1.6 | 3.2 | 0.00 | 0.13 | 0.13 | 64 | 1014.6 |
| 20260903023057 | 29 | 111 | 0.0 | 1.6 | 0.00 | 0.13 | 0.13 | 64 | 1011.5 |
| 20260903022829 | 30 | 110 | 0.0 | 1.6 | 0.00 | 0.13 | 0.13 | 67 | 1014.5 |
| 20260903022549 | 29 | 111 | 0.0 | 0.0 | 0.00 | 0.13 | 0.13 | 65 | 1011.3 |
| 20260903022350 | 30 | 110 | 0.0 | 0.0 | 0.00 | 0.13 | 0.13 | 64 | 1014.4 |
| 20260903022008 | 30 | 110 | 0.0 | 1.6 | 0.00 | 0.13 | 0.13 | 63 | 1011.3 |
| 20260903021830 | 30 | 110 | 0.0 | 1.6 | 0.00 | 0.13 | 0.13 | 63 | 1014.3 |
| 20260903021506 | 30 | 110 | 0.0 | 1.6 | 0.00 | 0.13 | 0.13 | 65 | 1011.1 |
| 20260903021350 | 30 | 110 | 0.0 | 1.6 | 0.00 | 0.13 | 0.13 | 65 | 1014.2 |
| 20260903021033 | 30 | 110 | 0.0 | 1.6 | 0.00 | 0.13 | 0.13 | 63 | 1011.1 |
| 20260903020846 | 30 | 110 | 0.0 | 1.6 | 0.00 | 0.13 | 0.13 | 62 | 1014.2 |
| 20260903020558 | 30 | 110 | 0.0 | 3.2 | 0.00 | 0.13 | 0.13 | 63 | 1011.1 |
| 20260903020324 | 30 | 110 | 0.0 | 3.2 | 0.00 | 0.13 | 0.13 | 62 | 1014.2 |
| 20260903020105 | 30 | 110 | 0.0 | 3.2 | 0.00 | 0.13 | 0.13 | 62 | 1011.0 |
| 20260903015822 | 30 | 110 | 1.6 | 3.2 | 0.00 | 0.13 | 0.13 | 62 | 1014.2 |
| 20260903015554 | 30 | 110 | 0.0 | 3.2 | 0.00 | 0.13 | 0.13 | 62 | 1011.0 |
| 20260903015319 | 30 | 110 | 0.0 | 3.2 | 0.00 | 0.13 | 0.13 | 61 | 1014.1 |
| 20260903015050 | 30 | 110 | 0.0 | 3.2 | 0.00 | 0.13 | 0.13 | 62 | 1010.9 |
| 20260903014814 | 30 | 110 | 0.0 | 4.8 | 0.00 | 0.13 | 0.13 | 62 | 1014.1 |
| 20260903014520 | 30 | 110 | 0.0 | 4.8 | 0.00 | 0.13 | 0.13 | 62 | 1011.0 |
| 20260903014331 | 31 | 110 | 0.0 | 4.8 | 0.00 | 0.13 | 0.13 | 63 | 1014.0 |
| 20260903014004 | 30 | 110 | 1.6 | 4.8 | 0.00 | 0.13 | 0.13 | 63 | 1011.0 |
| 20260903013828 | 31 | 110 | 1.6 | 3.2 | 0.00 | 0.13 | 0.13 | 63 | 1014.0 |
| 20260903013556 | 30 | 110 | 0.0 | 1.6 | 0.00 | 0.13 | 0.13 | 62 | 1011.0 |
| 20260903013345 | 31 | 110 | 0.0 | 1.6 | 0.00 | 0.13 | 0.13 | 62 | 1013.9 |
| 20260903013026 | 31 | 110 | 0.0 | 1.6 | 0.00 | 0.13 | 0.13 | 61 | 1011.0 |
| 20260903012819 | 31 | 110 | 0.0 | 1.6 | 0.00 | 0.13 | 0.13 | 60 | 1014.0 |
| 20260903012551 | 31 | 110 | 0.0 | 0.0 | 0.00 | 0.13 | 0.13 | 59 | 1010.9 |
| 20260903012317 | 31 | 110 | 0.0 | 0.0 | 0.00 | 0.13 | 0.13 | 60 | 1014.0 |
| 20260903012042 | 31 | 110 | 0.0 | 0.0 | 0.00 | 0.13 | 0.13 | 60 | 1010.9 |
| 20260903011814 | 31 | 110 | 0.0 | 0.0 | 0.00 | 0.13 | 0.13 | 58 | 1013.9 |
| 20260903011537 | 31 | 110 | 0.0 | 0.0 | 0.00 | 0.13 | 0.13 | 57 | 1010.8 |
| 20260903011332 | 31 | 111 | 0.0 | 0.0 | 0.00 | 0.13 | 0.13 | 57 | 1013.8 |
| 20260903011015 | 31 | 110 | 0.0 | 0.0 | 0.00 | 0.13 | 0.13 | 56 | 1010.6 |
| 20260903010850 | 31 | 110 | 0.0 | 0.0 | 0.00 | 0.13 | 0.13 | 57 | 1013.7 |
| 20260903010545 | 31 | 110 | 0.0 | 0.0 | 0.00 | 0.13 | 0.13 | 57 | 1010.7 |
| 20260903010328 | 32 | 110 | 0.0 | 0.0 | 0.00 | 0.13 | 0.13 | 56 | 1013.7 |
| 20260903010039 | 31 | 110 | 0.0 | 0.0 | 0.00 | 0.13 | 0.13 | 55 | 1010.7 |
| 20260903005824 | 32 | 110 | 0.0 | 0.0 | 0.00 | 0.13 | 0.13 | 58 | 1013.9 |
| 20260903005530 | 32 | 110 | 0.0 | 0.0 | 0.00 | 0.13 | 0.13 | 58 | 1010.7 |
| 20260903005342 | 32 | 110 | 0.0 | 0.0 | 0.00 | 0.13 | 0.13 | 59 | 1013.9 |
| 20260903005051 | 31 | 110 | 0.0 | 0.0 | 0.00 | 0.13 | 0.13 | 56 | 1010.7 |
| 20260903004818 | 32 | 110 | 0.0 | 0.0 | 0.00 | 0.13 | 0.13 | 56 | 1013.8 |
| 20260903004542 | 31 | 110 | 0.0 | 0.0 | 0.00 | 0.13 | 0.13 | 55 | 1010.6 |
| 20260903004315 | 32 | 110 | 0.0 | 0.0 | 0.00 | 0.13 | 0.13 | 55 | 1013.8 |
| 20260903004034 | 31 | 111 | 0.0 | 0.0 | 0.00 | 0.13 | 0.13 | 55 | 1010.7 |
| 20260903003833 | 32 | 104 | 0.0 | 0.0 | 0.00 | 0.13 | 0.13 | 55 | 1013.8 |
| 20260903003515 | 31 | 105 | 0.0 | 0.0 | 0.05 | 0.13 | 0.13 | 55 | 1010.7 |
| 20260903003329 | 32 | 145 | 0.0 | 0.0 | 0.05 | 0.13 | 0.13 | 55 | 1013.8 |
| 20260903003008 | 31 | 102 | 0.0 | 0.0 | 0.05 | 0.13 | 0.13 | 55 | 1010.6 |
| 20260903002829 | 32 | 98 | 0.0 | 0.0 | 0.05 | 0.13 | 0.13 | 55 | 1013.7 |
| 20260903002600 | 31 | 143 | 0.0 | 0.0 | 0.13 | 0.13 | 0.13 | 56 | 1010.6 |
| 20260903002326 | 31 | 113 | 0.0 | 0.0 | 0.13 | 0.13 | 0.13 | 56 | 1013.7 |
| 20260903002050 | 31 | 112 | 0.0 | 0.0 | 0.13 | 0.13 | 0.13 | 56 | 1010.6 |
| 20260903001820 | 31 | 114 | 0.0 | 0.0 | 0.13 | 0.13 | 0.13 | 57 | 1013.7 |
| 20260903001520 | 31 | 114 | 0.0 | 0.0 | 0.13 | 0.13 | 0.13 | 58 | 1010.6 |
| 20260903001316 | 31 | 129 | 0.0 | 0.0 | 0.13 | 0.13 | 0.13 | 59 | 1013.8 |
| 20260903001002 | 31 | 102 | 0.0 | 0.0 | 0.13 | 0.13 | 0.13 | 60 | 1010.7 |
| 20260903000813 | 31 | 120 | 0.0 | 0.0 | 0.13 | 0.13 | 0.13 | 61 | 1013.8 |
| 20260903000556 | 31 | 110 | 0.0 | 0.0 | 0.13 | 0.13 | 0.13 | 60 | 1010.7 |
| 20260903000332 | 31 | 168 | 0.0 | 0.0 | 0.13 | 0.13 | 0.13 | 61 | 1013.7 |
| 20260903000055 | 31 | 168 | 0.0 | 0.0 | 0.13 | 0.13 | 0.13 | 62 | 1010.7 |
| 20260902235830 | 31 | 168 | 0.0 | 0.0 | 0.13 | 0.13 | 0.13 | 61 | 1013.7 |
| 20260902235540 | 31 | 169 | 0.0 | 0.0 | 0.13 | 0.13 | 0.13 | 59 | 1010.5 |
| 20260902235326 | 31 | 165 | 0.0 | 0.0 | 0.13 | 0.13 | 0.13 | 58 | 1013.8 |
| 20260902235029 | 31 | 176 | 0.0 | 16.1 | 0.13 | 0.13 | 0.13 | 57 | 1010.6 |
| 20260902234826 | 31 | 168 | 0.0 | 16.1 | 0.13 | 0.13 | 0.13 | 55 | 1013.8 |
| 20260902234514 | 31 | 155 | 0.0 | 16.1 | 0.13 | 0.13 | 0.13 | 54 | 1010.6 |
| 20260902234323 | 31 | 130 | 3.2 | 16.1 | 0.13 | 0.13 | 0.13 | 54 | 1013.7 |
| 20260902234010 | 31 | 108 | 8.0 | 12.9 | 0.13 | 0.13 | 0.13 | 51 | 1010.6 |
| 20260902233820 | 31 | 91 | 3.2 | 9.7 | 0.10 | 0.10 | 0.10 | 50 | 1013.9 |
| 20260902233558 | 31 | 230 | 1.6 | 6.4 | 0.08 | 0.08 | 0.08 | 50 | 1010.9 |
| 20260902233318 | 32 | 342 | 0.0 | 0.0 | 0.08 | 0.08 | 0.08 | 51 | 1014.2 |
| 20260902233054 | 33 | 317 | 0.0 | 0.0 | 0.08 | 0.08 | 0.08 | 50 | 1011.2 |
| 20260902232815 | 35 | 299 | 0.0 | 0.0 | 0.05 | 0.05 | 0.05 | 47 | 1014.2 |
| 20260902232539 | 35 | 242 | 0.0 | 0.0 | 0.00 | 0.00 | 0.00 | 45 | 1010.9 |
| 20260902232333 | 35 | 160 | 0.0 | 0.0 | 0.00 | 0.00 | 0.00 | 45 | 1013.8 |
| 20260902232033 | 35 | 198 | 0.0 | 0.0 | 0.00 | 0.00 | 0.00 | 43 | 1010.7 |
| 20260902231851 | 35 | 181 | 0.0 | 0.0 | 0.00 | 0.00 | 0.00 | 43 | 1013.7 |
| 20260902231556 | 35 | 143 | 0.0 | 0.0 | 0.00 | 0.00 | 0.00 | 41 | 1010.6 |
| 20260902231326 | 35 | 131 | 0.0 | 0.0 | 0.00 | 0.00 | 0.00 | 41 | 1013.6 |
| 20260902231044 | 35 | 152 | 0.0 | 0.0 | 0.00 | 0.00 | 0.00 | 41 | 1010.6 |
| 20260902230824 | 35 | 142 | 0.0 | 0.0 | 0.00 | 0.00 | 0.00 | 41 | 1013.7 |
| 20260902230535 | 35 | 110 | 0.0 | 0.0 | 0.00 | 0.00 | 0.00 | 41 | 1010.5 |
| 20260902230324 | 35 | 129 | 0.0 | 0.0 | 0.00 | 0.00 | 0.00 | 41 | 1013.7 |
| 20260902230028 | 35 | 149 | 0.0 | 0.0 | 0.00 | 0.00 | 0.00 | 41 | 1010.6 |
| 20260902225821 | 35 | 113 | 0.0 | 0.0 | 0.00 | 0.00 | 0.00 | 41 | 1013.7 |
| 20260902225527 | 35 | 118 | 0.0 | 0.0 | 0.00 | 0.00 | 0.00 | 41 | 1010.6 |
| 20260902225320 | 35 | 109 | 0.0 | 11.3 | 0.00 | 0.00 | 0.00 | 41 | 1013.7 |
| 20260902225028 | 35 | 110 | 0.0 | 12.9 | 0.00 | 0.00 | 0.00 | 41 | 1010.7 |
| 20260902224819 | 36 | 81 | 0.0 | 12.9 | 0.00 | 0.00 | 0.00 | 40 | 1013.7 |
| 20260902224522 | 36 | 129 | 4.8 | 12.9 | 0.00 | 0.00 | 0.00 | 40 | 1010.6 |
| 20260902224318 | 36 | 91 | 4.8 | 9.7 | 0.00 | 0.00 | 0.00 | 40 | 1013.6 |
| 20260902224020 | 36 | 354 | 0.0 | 6.4 | 0.00 | 0.00 | 0.00 | 40 | 1010.6 |
| 20260902223817 | 36 | 187 | 0.0 | 9.7 | 0.00 | 0.00 | 0.00 | 40 | 1013.6 |
| 20260902223502 | 36 | 74 | 0.0 | 9.7 | 0.00 | 0.00 | 0.00 | 39 | 1010.5 |
| 20260902223315 | 36 | 90 | 0.0 | 9.7 | 0.00 | 0.00 | 0.00 | 39 | 1013.7 |
| 20260902223056 | 36 | 112 | 4.8 | 9.7 | 0.00 | 0.00 | 0.00 | 40 | 1010.5 |
| 20260902222851 | 36 | 31 | 6.4 | 11.3 | 0.00 | 0.00 | 0.00 | 40 | 1013.6 |
| 20260902222531 | 36 | 113 | 4.8 | 11.3 | 0.00 | 0.00 | 0.00 | 39 | 1010.5 |
| 20260902222330 | 36 | 91 | 4.8 | 11.3 | 0.00 | 0.00 | 0.00 | 40 | 1013.6 |
| 20260902222017 | 36 | 62 | 0.0 | 0.0 | 0.00 | 0.00 | 0.00 | 40 | 1010.6 |
| 20260902221830 | 36 | 75 | 0.0 | 0.0 | 0.00 | 0.00 | 0.00 | 40 | 1013.8 |
| 20260902221518 | 36 | 324 | 0.0 | 0.0 | 0.00 | 0.00 | 0.00 | 40 | 1010.6 |
| 20260902221326 | 36 | 251 | 0.0 | 0.0 | 0.00 | 0.00 | 0.00 | 40 | 1013.8 |
| 20260902221002 | 36 | 287 | 0.0 | 0.0 | 0.00 | 0.00 | 0.00 | 40 | 1010.7 |
| 20260902220846 | 36 | 40 | 0.0 | 4.8 | 0.00 | 0.00 | 0.00 | 39 | 1013.9 |
| 20260902220539 | 36 | 8 | 0.0 | 4.8 | 0.00 | 0.00 | 0.00 | 40 | 1010.8 |
| 20260902220323 | 36 | 328 | 0.0 | 4.8 | 0.00 | 0.00 | 0.00 | 40 | 1013.8 |
| 20260902220028 | 36 | 28 | 0.0 | 4.8 | 0.00 | 0.00 | 0.00 | 40 | 1010.8 |
| 20260902215839 | 36 | 318 | 0.0 | 0.0 | 0.00 | 0.00 | 0.00 | 41 | 1013.8 |
| 20260902215516 | 36 | 241 | 0.0 | 0.0 | 0.00 | 0.00 | 0.00 | 41 | 1010.7 |
| 20260902215329 | 36 | 256 | 0.0 | 0.0 | 0.00 | 0.00 | 0.00 | 41 | 1013.8 |
| 20260902215059 | 36 | 206 | 0.0 | 0.0 | 0.00 | 0.00 | 0.00 | 40 | 1010.7 |
| 20260902214827 | 36 | 206 | 0.0 | 0.0 | 0.00 | 0.00 | 0.00 | 40 | 1013.9 |
| 20260902214553 | 35 | 228 | 0.0 | 0.0 | 0.00 | 0.00 | 0.00 | 40 | 1010.8 |
| 20260902214325 | 36 | 220 | 0.0 | 0.0 | 0.00 | 0.00 | 0.00 | 40 | 1013.9 |
| 20260902214048 | 35 | 243 | 0.0 | 11.3 | 0.00 | 0.00 | 0.00 | 40 | 1010.9 |
| 20260902213823 | 36 | 244 | 0.0 | 12.9 | 0.00 | 0.00 | 0.00 | 40 | 1014.0 |
| 20260902213540 | 35 | 256 | 0.0 | 20.9 | 0.00 | 0.00 | 0.00 | 41 | 1010.9 |
| 20260902213321 | 36 | 262 | 8.0 | 20.9 | 0.00 | 0.00 | 0.00 | 41 | 1014.0 |
| 20260902213034 | 35 | 266 | 8.0 | 20.9 | 0.00 | 0.00 | 0.00 | 42 | 1010.9 |
| 20260902212838 | 36 | 276 | 8.0 | 20.9 | 0.00 | 0.00 | 0.00 | 42 | 1014.0 |
| 20260902212520 | 35 | 205 | 0.0 | 11.3 | 0.00 | 0.00 | 0.00 | 42 | 1010.9 |
| 20260902212330 | 35 | 205 | 1.6 | 11.3 | 0.00 | 0.00 | 0.00 | 42 | 1014.1 |
| 20260902212004 | 35 | 216 | 4.8 | 9.7 | 0.00 | 0.00 | 0.00 | 42 | 1011.0 |
| 20260902211827 | 35 | 225 | 3.2 | 9.7 | 0.00 | 0.00 | 0.00 | 43 | 1014.1 |
| 20260902211559 | 35 | 88 | 0.0 | 4.8 | 0.00 | 0.00 | 0.00 | 43 | 1011.0 |
| 20260902211325 | 35 | 181 | 0.0 | 0.0 | 0.00 | 0.00 | 0.00 | 43 | 1014.1 |
| 20260902211053 | 35 | 270 | 0.0 | 0.0 | 0.00 | 0.00 | 0.00 | 43 | 1011.1 |
| 20260902210823 | 35 | 284 | 0.0 | 0.0 | 0.00 | 0.00 | 0.00 | 44 | 1014.1 |
| 20260902210543 | 34 | 304 | 0.0 | 0.0 | 0.00 | 0.00 | 0.00 | 44 | 1011.2 |
| 20260902210322 | 35 | 306 | 0.0 | 0.0 | 0.00 | 0.00 | 0.00 | 44 | 1014.3 |
| 20260902210033 | 34 | 306 | 0.0 | 0.0 | 0.00 | 0.00 | 0.00 | 45 | 1011.3 |
| 20260902205820 | 35 | 306 | 0.0 | 0.0 | 0.00 | 0.00 | 0.00 | 45 | 1014.3 |
| 20260902205523 | 34 | 306 | 0.0 | 0.0 | 0.00 | 0.00 | 0.00 | 45 | 1011.4 |
| 20260902205316 | 34 | 306 | 0.0 | 0.0 | 0.00 | 0.00 | 0.00 | 45 | 1014.5 |
| 20260902205016 | 34 | 106 | 0.0 | 0.0 | 0.00 | 0.00 | 0.00 | 45 | 1011.5 |
| 20260902204833 | 34 | 105 | 0.0 | 0.0 | 0.00 | 0.00 | 0.00 | 45 | 1014.6 |
| 20260902204614 | 34 | 98 | 0.0 | 0.0 | 0.00 | 0.00 | 0.00 | 45 | 1011.5 |
| 20260902204332 | 34 | 230 | 0.0 | 0.0 | 0.00 | 0.00 | 0.00 | 46 | 1014.6 |
| 20260902204054 | 33 | 231 | 0.0 | 0.0 | 0.00 | 0.00 | 0.00 | 45 | 1011.6 |
| 20260902203830 | 34 | 231 | 0.0 | 0.0 | 0.00 | 0.00 | 0.00 | 45 | 1014.7 |
| 20260902203545 | 33 | 216 | 0.0 | 0.0 | 0.00 | 0.00 | 0.00 | 46 | 1011.7 |
| 20260902203329 | 34 | 258 | 0.0 | 0.0 | 0.00 | 0.00 | 0.00 | 46 | 1014.8 |
| 20260902203037 | 33 | 283 | 0.0 | 0.0 | 0.00 | 0.00 | 0.00 | 46 | 1011.8 |
| 20260902202829 | 34 | 270 | 0.0 | 0.0 | 0.00 | 0.00 | 0.00 | 46 | 1014.7 |
| 20260902202528 | 34 | 277 | 0.0 | 0.0 | 0.00 | 0.00 | 0.00 | 46 | 1011.8 |
| 20260902202326 | 34 | 250 | 0.0 | 0.0 | 0.00 | 0.00 | 0.00 | 45 | 1014.9 |
| 20260902202012 | 34 | 316 | 0.0 | 0.0 | 0.00 | 0.00 | 0.00 | 45 | 1011.9 |
| 20260902201826 | 34 | 331 | 0.0 | 0.0 | 0.00 | 0.00 | 0.00 | 45 | 1015.0 |
| 20260902201601 | 34 | 328 | 0.0 | 0.0 | 0.00 | 0.00 | 0.00 | 45 | 1012.0 |
| 20260902201325 | 34 | 45 | 0.0 | 0.0 | 0.00 | 0.00 | 0.00 | 45 | 1015.1 |
| 20260902201053 | 34 | 12 | 0.0 | 0.0 | 0.00 | 0.00 | 0.00 | 45 | 1012.0 |
| 20260902200823 | 34 | 101 | 0.0 | 0.0 | 0.00 | 0.00 | 0.00 | 45 | 1015.0 |
| 20260902200546 | 34 | 62 | 0.0 | 0.0 | 0.00 | 0.00 | 0.00 | 46 | 1012.1 |
| 20260902200321 | 34 | 4 | 0.0 | 0.0 | 0.00 | 0.00 | 0.00 | 45 | 1015.1 |
| 20260902200039 | 34 | 48 | 0.0 | 0.0 | 0.00 | 0.00 | 0.00 | 45 | 1012.1 |
| 20260902195818 | 35 | 79 | 0.0 | 0.0 | 0.00 | 0.00 | 0.00 | 45 | 1015.3 |
| 20260902195532 | 34 | 359 | 0.0 | 0.0 | 0.00 | 0.00 | 0.00 | 45 | 1012.4 |
| 20260902195336 | 35 | 359 | 0.0 | 0.0 | 0.00 | 0.00 | 0.00 | 45 | 1015.4 |
| 20260902195057 | 34 | 39 | 0.0 | 0.0 | 0.00 | 0.00 | 0.00 | 45 | 1012.3 |
| 20260902194833 | 35 | 58 | 0.0 | 0.0 | 0.00 | 0.00 | 0.00 | 44 | 1015.3 |
| 20260902194559 | 34 | 22 | 0.0 | 0.0 | 0.00 | 0.00 | 0.00 | 44 | 1012.3 |
| 20260902194351 | 35 | 4 | 0.0 | 0.0 | 0.00 | 0.00 | 0.00 | 43 | 1015.3 |
| 20260902194031 | 34 | 128 | 0.0 | 0.0 | 0.00 | 0.00 | 0.00 | 43 | 1012.3 |
| 20260902193827 | 35 | 21 | 0.0 | 0.0 | 0.00 | 0.00 | 0.00 | 43 | 1015.4 |
| 20260902193523 | 35 | 17 | 0.0 | 0.0 | 0.00 | 0.00 | 0.00 | 43 | 1012.3 |
| 20260902193324 | 35 | 340 | 0.0 | 0.0 | 0.00 | 0.00 | 0.00 | 43 | 1015.5 |
| 20260902193005 | 35 | 4 | 0.0 | 0.0 | 0.00 | 0.00 | 0.00 | 43 | 1012.5 |
| 20260902192821 | 35 | 310 | 0.0 | 0.0 | 0.00 | 0.00 | 0.00 | 43 | 1015.6 |
| 20260902192557 | 35 | 301 | 0.0 | 0.0 | 0.00 | 0.00 | 0.00 | 42 | 1012.6 |
| 20260902192353 | 35 | 359 | 0.0 | 0.0 | 0.00 | 0.00 | 0.00 | 42 | 1015.7 |
| 20260902192017 | 35 | 332 | 0.0 | 0.0 | 0.00 | 0.00 | 0.00 | 42 | 1012.5 |
| 20260902191830 | 36 | 285 | 0.0 | 6.4 | 0.00 | 0.00 | 0.00 | 42 | 1015.6 |
| 20260902191514 | 36 | 318 | 0.0 | 6.4 | 0.00 | 0.00 | 0.00 | 42 | 1012.6 |
| 20260902191327 | 36 | 308 | 0.0 | 6.4 | 0.00 | 0.00 | 0.00 | 42 | 1015.8 |
| 20260902191101 | 35 | 305 | 0.0 | 6.4 | 0.00 | 0.00 | 0.00 | 43 | 1012.7 |
| 20260902190824 | 36 | 359 | 0.0 | 0.0 | 0.00 | 0.00 | 0.00 | 43 | 1015.9 |
| 20260902190554 | 35 | 359 | 0.0 | 0.0 | 0.00 | 0.00 | 0.00 | 43 | 1012.8 |
| 20260902190322 | 35 | 152 | 0.0 | 0.0 | 0.00 | 0.00 | 0.00 | 43 | 1016.0 |
| 20260902190041 | 35 | 136 | 0.0 | 0.0 | 0.00 | 0.00 | 0.00 | 44 | 1012.9 |
| 20260902185819 | 35 | 88 | 0.0 | 0.0 | 0.00 | 0.00 | 0.00 | 44 | 1016.0 |
| 20260902185533 | 35 | 265 | 0.0 | 0.0 | 0.00 | 0.00 | 0.00 | 44 | 1012.9 |
| 20260902185319 | 35 | 272 | 0.0 | 0.0 | 0.00 | 0.00 | 0.00 | 44 | 1016.0 |
| 20260902185023 | 35 | 158 | 0.0 | 0.0 | 0.00 | 0.00 | 0.00 | 44 | 1012.9 |
| 20260902184814 | 35 | 121 | 0.0 | 0.0 | 0.00 | 0.00 | 0.00 | 44 | 1016.0 |
| 20260902184506 | 35 | 25 | 0.0 | 0.0 | 0.00 | 0.00 | 0.00 | 44 | 1013.0 |
| 20260902184352 | 35 | 125 | 0.0 | 0.0 | 0.00 | 0.00 | 0.00 | 45 | 1016.1 |
| 20260902184037 | 34 | 168 | 0.0 | 0.0 | 0.00 | 0.00 | 0.00 | 45 | 1013.2 |
| 20260902183850 | 34 | 72 | 0.0 | 0.0 | 0.00 | 0.00 | 0.00 | 45 | 1016.3 |
| 20260902183601 | 34 | 75 | 0.0 | 0.0 | 0.00 | 0.00 | 0.00 | 46 | 1013.4 |
| 20260902183328 | 34 | 94 | 0.0 | 0.0 | 0.00 | 0.00 | 0.00 | 46 | 1016.5 |
| 20260902183127 | 33 | 161 | 0.0 | 0.0 | 0.00 | 0.00 | 0.00 | 46 | 1013.4 |
| 20260902182825 | 33 | 160 | 0.0 | 0.0 | 0.00 | 0.00 | 0.00 | 46 | 1016.5 |
| 20260902182543 | 33 | 316 | 0.0 | 0.0 | 0.00 | 0.00 | 0.00 | 46 | 1013.5 |
| 20260902182322 | 34 | 304 | 0.0 | 0.0 | 0.00 | 0.00 | 0.00 | 46 | 1016.6 |
| 20260902182033 | 33 | 297 | 0.0 | 0.0 | 0.00 | 0.00 | 0.00 | 46 | 1013.6 |
| 20260902181840 | 34 | 343 | 0.0 | 0.0 | 0.00 | 0.00 | 0.00 | 45 | 1016.7 |
| 20260902181519 | 34 | 261 | 0.0 | 0.0 | 0.00 | 0.00 | 0.00 | 45 | 1013.7 |
| 20260902181330 | 35 | 297 | 0.0 | 0.0 | 0.00 | 0.00 | 0.00 | 46 | 1016.8 |
| 20260902181003 | 34 | 341 | 0.0 | 0.0 | 0.00 | 0.00 | 0.00 | 46 | 1013.7 |
| 20260902180827 | 35 | 299 | 0.0 | 0.0 | 0.00 | 0.00 | 0.00 | 46 | 1016.8 |
| 20260902180555 | 34 | 305 | 0.0 | 0.0 | 0.00 | 0.00 | 0.00 | 47 | 1013.7 |
| 20260902180344 | 34 | 125 | 0.0 | 0.0 | 0.00 | 0.00 | 0.00 | 47 | 1016.9 |
| 20260902180025 | 33 | 184 | 0.0 | 0.0 | 0.00 | 0.00 | 0.00 | 48 | 1013.9 |
| 20260902175821 | 34 | 89 | 0.0 | 0.0 | 0.00 | 0.00 | 0.00 | 47 | 1016.9 |
| 20260902175523 | 33 | 93 | 0.0 | 0.0 | 0.00 | 0.00 | 0.00 | 48 | 1013.9 |
| 20260902175338 | 34 | 134 | 0.0 | 0.0 | 0.00 | 0.00 | 0.00 | 48 | 1017.0 |
| 20260902175040 | 33 | 199 | 0.0 | 0.0 | 0.00 | 0.00 | 0.00 | 49 | 1014.2 |
| 20260902174835 | 33 | 68 | 0.0 | 0.0 | 0.00 | 0.00 | 0.00 | 49 | 1017.3 |
| 20260902174503 | 33 | 15 | 0.0 | 0.0 | 0.00 | 0.00 | 0.00 | 49 | 1014.4 |
| 20260902174331 | 33 | 224 | 0.0 | 0.0 | 0.00 | 0.00 | 0.00 | 49 | 1017.4 |
| 20260902174057 | 33 | 224 | 0.0 | 0.0 | 0.00 | 0.00 | 0.00 | 49 | 1014.5 |
| 20260902173850 | 33 | 224 | 0.0 | 0.0 | 0.00 | 0.00 | 0.00 | 50 | 1017.5 |
| 20260902173527 | 33 | 187 | 0.0 | 0.0 | 0.00 | 0.00 | 0.00 | 50 | 1014.5 |
| 20260902173326 | 33 | 50 | 0.0 | 0.0 | 0.00 | 0.00 | 0.00 | 49 | 1017.5 |
| 20260902173009 | 33 | 214 | 0.0 | 0.0 | 0.00 | 0.00 | 0.00 | 49 | 1014.5 |
| 20260902172824 | 33 | 243 | 0.0 | 0.0 | 0.00 | 0.00 | 0.00 | 50 | 1017.5 |
| 20260902172601 | 33 | 228 | 0.0 | 0.0 | 0.00 | 0.00 | 0.00 | 51 | 1014.4 |
| 20260902172322 | 33 | 214 | 0.0 | 0.0 | 0.00 | 0.00 | 0.00 | 50 | 1017.4 |
| 20260902172051 | 32 | 243 | 0.0 | 0.0 | 0.00 | 0.00 | 0.00 | 51 | 1014.5 |
| 20260902171819 | 33 | 354 | 0.0 | 0.0 | 0.00 | 0.00 | 0.00 | 50 | 1017.5 |
| 20260902171544 | 32 | 320 | 0.0 | 0.0 | 0.00 | 0.00 | 0.00 | 51 | 1014.5 |
| 20260902171316 | 33 | 263 | 0.0 | 0.0 | 0.00 | 0.00 | 0.00 | 51 | 1017.6 |
| 20260902171035 | 32 | 347 | 0.0 | 0.0 | 0.00 | 0.00 | 0.00 | 51 | 1014.6 |
| 20260902170814 | 33 | 56 | 0.0 | 0.0 | 0.00 | 0.00 | 0.00 | 51 | 1017.6 |
| 20260902170515 | 32 | 13 | 0.0 | 0.0 | 0.00 | 0.00 | 0.00 | 51 | 1014.5 |
| 20260902170332 | 33 | 354 | 0.0 | 0.0 | 0.00 | 0.00 | 0.00 | 52 | 1017.6 |
| 20260902170005 | 32 | 268 | 0.0 | 0.0 | 0.00 | 0.00 | 0.00 | 52 | 1014.7 |
| 20260902165830 | 32 | 265 | 0.0 | 0.0 | 0.00 | 0.00 | 0.00 | 52 | 1017.7 |
| 20260902165558 | 32 | 265 | 0.0 | 0.0 | 0.00 | 0.00 | 0.00 | 52 | 1014.7 |
| 20260902165327 | 32 | 249 | 0.0 | 0.0 | 0.00 | 0.00 | 0.00 | 53 | 1017.7 |
| 20260902165050 | 32 | 252 | 0.0 | 0.0 | 0.00 | 0.00 | 0.00 | 53 | 1014.8 |
| 20260902164826 | 32 | 262 | 0.0 | 0.0 | 0.00 | 0.00 | 0.00 | 54 | 1017.8 |
| 20260902164555 | 32 | 228 | 0.0 | 0.0 | 0.00 | 0.00 | 0.00 | 54 | 1014.9 |
| 20260902164323 | 32 | 269 | 0.0 | 0.0 | 0.00 | 0.00 | 0.00 | 54 | 1018.0 |
| 20260902164035 | 32 | 303 | 0.0 | 0.0 | 0.00 | 0.00 | 0.00 | 55 | 1015.1 |
| 20260902163820 | 32 | 327 | 0.0 | 0.0 | 0.00 | 0.00 | 0.00 | 55 | 1018.1 |
| 20260902163535 | 32 | 284 | 0.0 | 0.0 | 0.00 | 0.00 | 0.00 | 54 | 1015.1 |
| 20260902163319 | 32 | 278 | 0.0 | 0.0 | 0.00 | 0.00 | 0.00 | 55 | 1018.2 |
| 20260902163032 | 32 | 276 | 0.0 | 0.0 | 0.00 | 0.00 | 0.00 | 55 | 1015.2 |
| 20260902162818 | 32 | 272 | 0.0 | 0.0 | 0.00 | 0.00 | 0.00 | 56 | 1018.3 |
| 20260902162526 | 31 | 212 | 0.0 | 0.0 | 0.00 | 0.00 | 0.00 | 55 | 1015.1 |
| 20260902162315 | 32 | 223 | 0.0 | 0.0 | 0.00 | 0.00 | 0.00 | 56 | 1018.2 |
| 20260902162051 | 31 | 216 | 0.0 | 0.0 | 0.00 | 0.00 | 0.00 | 57 | 1015.1 |
| 20260902161827 | 32 | 269 | 0.0 | 0.0 | 0.00 | 0.00 | 0.00 | 57 | 1018.2 |
| 20260902161543 | 31 | 258 | 0.0 | 0.0 | 0.00 | 0.00 | 0.00 | 57 | 1015.0 |
| 20260902161324 | 31 | 278 | 0.0 | 0.0 | 0.00 | 0.00 | 0.00 | 58 | 1018.3 |
| 20260902161034 | 31 | 246 | 0.0 | 0.0 | 0.00 | 0.00 | 0.00 | 58 | 1015.1 |
| 20260902160822 | 31 | 284 | 0.0 | 0.0 | 0.00 | 0.00 | 0.00 | 58 | 1018.2 |
| 20260902160529 | 31 | 242 | 0.0 | 0.0 | 0.00 | 0.00 | 0.00 | 59 | 1015.2 |
| 20260902160319 | 31 | 290 | 0.0 | 0.0 | 0.00 | 0.00 | 0.00 | 59 | 1018.2 |
| 20260902160020 | 31 | 249 | 0.0 | 0.0 | 0.00 | 0.00 | 0.00 | 60 | 1015.1 |
| 20260902155817 | 31 | 257 | 0.0 | 0.0 | 0.00 | 0.00 | 0.00 | 60 | 1018.3 |
| 20260902155514 | 31 | 295 | 0.0 | 0.0 | 0.00 | 0.00 | 0.00 | 60 | 1015.2 |
| 20260902155333 | 31 | 309 | 0.0 | 0.0 | 0.00 | 0.00 | 0.00 | 60 | 1018.2 |
| 20260902155037 | 31 | 315 | 0.0 | 0.0 | 0.00 | 0.00 | 0.00 | 61 | 1015.2 |
| 20260902154850 | 31 | 296 | 0.0 | 0.0 | 0.00 | 0.00 | 0.00 | 62 | 1018.3 |
| 20260902154501 | 30 | 262 | 0.0 | 0.0 | 0.00 | 0.00 | 0.00 | 63 | 1015.1 |
| 20260902154327 | 31 | 275 | 0.0 | 0.0 | 0.00 | 0.00 | 0.00 | 63 | 1018.3 |
| 20260902154058 | 30 | 274 | 0.0 | 0.0 | 0.00 | 0.00 | 0.00 | 63 | 1015.2 |
| 20260902153823 | 30 | 260 | 0.0 | 0.0 | 0.00 | 0.00 | 0.00 | 64 | 1018.2 |
| 20260902153549 | 30 | 230 | 0.0 | 0.0 | 0.00 | 0.00 | 0.00 | 63 | 1015.1 |
| 20260902153321 | 30 | 227 | 0.0 | 0.0 | 0.00 | 0.00 | 0.00 | 64 | 1018.2 |
| 20260902153041 | 30 | 264 | 0.0 | 0.0 | 0.00 | 0.00 | 0.00 | 64 | 1015.1 |
| 20260902152838 | 30 | 271 | 0.0 | 0.0 | 0.00 | 0.00 | 0.00 | 64 | 1018.2 |
| 20260902152528 | 30 | 287 | 0.0 | 0.0 | 0.00 | 0.00 | 0.00 | 65 | 1015.1 |
| 20260902152327 | 30 | 280 | 0.0 | 0.0 | 0.00 | 0.00 | 0.00 | 65 | 1018.1 |
| 20260902152053 | 30 | 263 | 0.0 | 0.0 | 0.00 | 0.00 | 0.00 | 65 | 1015.2 |
| 20260902151825 | 30 | 263 | 0.0 | 0.0 | 0.00 | 0.00 | 0.00 | 65 | 1018.2 |
| 20260902151548 | 29 | 197 | 0.0 | 0.0 | 0.00 | 0.00 | 0.00 | 65 | 1015.1 |
| 20260902151322 | 30 | 231 | 0.0 | 0.0 | 0.00 | 0.00 | 0.00 | 66 | 1018.3 |
| 20260902151040 | 29 | 224 | 0.0 | 0.0 | 0.00 | 0.00 | 0.00 | 66 | 1015.2 |
| 20260902150819 | 30 | 253 | 0.0 | 0.0 | 0.00 | 0.00 | 0.00 | 66 | 1018.3 |
| 20260902150533 | 29 | 262 | 0.0 | 0.0 | 0.00 | 0.00 | 0.00 | 66 | 1015.2 |
| 20260902150338 | 29 | 251 | 0.0 | 0.0 | 0.00 | 0.00 | 0.00 | 67 | 1018.3 |
| 20260902150021 | 29 | 220 | 0.0 | 0.0 | 0.00 | 0.00 | 0.00 | 66 | 1015.2 |
| 20260902145830 | 29 | 237 | 0.0 | 0.0 | 0.00 | 0.00 | 0.00 | 67 | 1018.3 |
| 20260902145505 | 28 | 231 | 0.0 | 0.0 | 0.00 | 0.00 | 0.00 | 67 | 1015.2 |
| 20260902145329 | 29 | 224 | 0.0 | 0.0 | 0.00 | 0.00 | 0.00 | 69 | 1018.3 |
| 20260902145056 | 28 | 222 | 0.0 | 0.0 | 0.00 | 0.00 | 0.00 | 69 | 1015.2 |
| 20260902144825 | 28 | 256 | 0.0 | 0.0 | 0.00 | 0.00 | 0.00 | 69 | 1018.3 |
| 20260902144600 | 28 | 218 | 0.0 | 0.0 | 0.00 | 0.00 | 0.00 | 69 | 1015.3 |
| 20260902144321 | 28 | 261 | 0.0 | 0.0 | 0.00 | 0.00 | 0.00 | 69 | 1018.3 |
| 20260902144043 | 28 | 214 | 0.0 | 0.0 | 0.00 | 0.00 | 0.00 | 70 | 1015.2 |
| 20260902143817 | 28 | 249 | 0.0 | 0.0 | 0.00 | 0.00 | 0.00 | 71 | 1018.3 |
| 20260902143533 | 28 | 251 | 0.0 | 0.0 | 0.00 | 0.00 | 0.00 | 71 | 1015.2 |
| 20260902143333 | 28 | 267 | 0.0 | 0.0 | 0.00 | 0.00 | 0.00 | 71 | 1018.2 |
| 20260902143015 | 27 | 272 | 0.0 | 0.0 | 0.00 | 0.00 | 0.00 | 72 | 1015.2 |
| 20260902142830 | 27 | 204 | 0.0 | 0.0 | 0.00 | 0.00 | 0.00 | 72 | 1018.2 |
| 20260902142547 | 27 | 210 | 0.0 | 0.0 | 0.00 | 0.00 | 0.00 | 74 | 1015.3 |
| 20260902142327 | 27 | 87 | 0.0 | 0.0 | 0.00 | 0.00 | 0.00 | 74 | 1018.3 |
| 20260902142039 | 27 | 86 | 0.0 | 0.0 | 0.00 | 0.00 | 0.00 | 75 | 1015.3 |
| 20260902141828 | 27 | 87 | 0.0 | 0.0 | 0.00 | 0.00 | 0.00 | 75 | 1018.3 |
| 20260902141535 | 27 | 86 | 0.0 | 0.0 | 0.00 | 0.00 | 0.00 | 76 | 1015.3 |
| 20260902141324 | 27 | 87 | 0.0 | 0.0 | 0.00 | 0.00 | 0.00 | 76 | 1018.3 |
| 20260902141053 | 27 | 87 | 0.0 | 0.0 | 0.00 | 0.00 | 0.00 | 76 | 1015.3 |
| 20260902140820 | 27 | 86 | 0.0 | 0.0 | 0.00 | 0.00 | 0.00 | 77 | 1018.2 |
| 20260902140547 | 26 | 86 | 0.0 | 0.0 | 0.00 | 0.00 | 0.00 | 77 | 1015.3 |
| 20260902140319 | 26 | 87 | 0.0 | 0.0 | 0.00 | 0.00 | 0.00 | 77 | 1018.2 |
| 20260902140040 | 26 | 87 | 0.0 | 0.0 | 0.00 | 0.00 | 0.00 | 77 | 1015.3 |
| 20260902135837 | 26 | 31 | 0.0 | 0.0 | 0.00 | 0.00 | 0.00 | 78 | 1018.2 |
| 20260902135603 | 26 | 31 | 0.0 | 0.0 | 0.00 | 0.00 | 0.00 | 78 | 1015.3 |
| 20260902135333 | 26 | 31 | 0.0 | 0.0 | 0.00 | 0.00 | 0.00 | 78 | 1018.2 |
| 20260902135053 | 26 | 23 | 0.0 | 0.0 | 0.00 | 0.00 | 0.00 | 78 | 1015.2 |
| 20260902134831 | 26 | 140 | 0.0 | 0.0 | 0.00 | 0.00 | 0.00 | 79 | 1018.1 |
| 20260902134548 | 26 | 140 | 0.0 | 0.0 | 0.00 | 0.00 | 0.00 | 79 | 1015.2 |
| 20260902134330 | 26 | 141 | 0.0 | 0.0 | 0.00 | 0.00 | 0.00 | 80 | 1018.1 |
| 20260902134044 | 25 | 140 | 0.0 | 0.0 | 0.00 | 0.00 | 0.00 | 81 | 1015.1 |
| 20260902133848 | 25 | 139 | 0.0 | 0.0 | 0.00 | 0.00 | 0.00 | 81 | 1018.0 |
| 20260902133507 | 25 | 140 | 0.0 | 0.0 | 0.00 | 0.00 | 0.00 | 82 | 1015.1 |
| 20260902133325 | 25 | 140 | 0.0 | 0.0 | 0.00 | 0.00 | 0.00 | 82 | 1018.0 |
| 20260902133103 | 24 | 140 | 0.0 | 0.0 | 0.00 | 0.00 | 0.00 | 83 | 1015.1 |
| 20260902132822 | 24 | 140 | 0.0 | 0.0 | 0.00 | 0.00 | 0.00 | 83 | 1018.0 |
| 20260902132557 | 23 | 140 | 0.0 | 0.0 | 0.00 | 0.00 | 0.00 | 83 | 1015.0 |
| 20260902132319 | 23 | 141 | 0.0 | 0.0 | 0.00 | 0.00 | 0.00 | 83 | 1018.0 |
| 20260902132046 | 23 | 141 | 0.0 | 0.0 | 0.00 | 0.00 | 0.00 | 83 | 1015.0 |
| 20260902131817 | 23 | 140 | 0.0 | 1.6 | 0.00 | 0.00 | 0.00 | 83 | 1017.9 |
| 20260902131550 | 23 | 140 | 0.0 | 1.6 | 0.00 | 0.00 | 0.00 | 83 | 1014.9 |